| time (UTC) | temp F | wind direction | speed MPH | gust MPH | rain 1hr in | rain 24hr in | rain mn in | humidity % | barometer mb |
| 20260502220052 | 64 | 273 | 4.0 | 17.0 | 0.00 | 0.00 | 0.00 | 34 | 1011.0 |
| 20260502215531 | 64 | 243 | 9.0 | 20.0 | 0.00 | 0.00 | 0.00 | 32 | 1011.1 |
| 20260502215030 | 64 | 223 | 11.0 | 20.0 | 0.00 | 0.00 | 0.00 | 32 | 1011.1 |
| 20260502214536 | 65 | 265 | 11.0 | 18.0 | 0.00 | 0.00 | 0.00 | 31 | 1011.1 |
| 20260502214032 | 66 | 221 | 8.0 | 15.0 | 0.00 | 0.00 | 0.00 | 31 | 1011.2 |
| 20260502213532 | 66 | 252 | 9.0 | 17.0 | 0.00 | 0.00 | 0.00 | 31 | 1011.2 |
| 20260502213041 | 66 | 223 | 6.0 | 18.0 | 0.00 | 0.00 | 0.00 | 30 | 1011.3 |
| 20260502212533 | 65 | 277 | 9.0 | 19.0 | 0.00 | 0.00 | 0.00 | 31 | 1011.4 |
| 20260502212032 | 65 | 238 | 11.0 | 19.0 | 0.00 | 0.00 | 0.00 | 29 | 1011.5 |
| 20260502211542 | 65 | 203 | 9.0 | 19.0 | 0.00 | 0.00 | 0.00 | 31 | 1011.6 |
| 20260502211031 | 65 | 273 | 11.0 | 19.0 | 0.00 | 0.00 | 0.00 | 30 | 1011.8 |
| 20260502210531 | 65 | 223 | 10.0 | 17.0 | 0.00 | 0.00 | 0.00 | 30 | 1011.8 |
| 20260502210041 | 64 | 249 | 10.0 | 18.0 | 0.00 | 0.00 | 0.00 | 32 | 1011.9 |
| 20260502205531 | 64 | 254 | 8.0 | 18.0 | 0.00 | 0.00 | 0.00 | 31 | 1012.0 |
| 20260502205029 | 64 | 269 | 8.0 | 17.0 | 0.00 | 0.00 | 0.00 | 31 | 1012.1 |
| 20260502204558 | 64 | 244 | 6.0 | 17.0 | 0.00 | 0.00 | 0.00 | 34 | 1012.2 |
| 20260502204033 | 64 | 262 | 8.0 | 18.0 | 0.00 | 0.00 | 0.00 | 30 | 1012.4 |
| 20260502203532 | 64 | 217 | 7.0 | 18.0 | 0.00 | 0.00 | 0.00 | 32 | 1012.4 |
| 20260502203047 | 65 | 217 | 11.0 | 17.0 | 0.00 | 0.00 | 0.00 | 30 | 1012.5 |
| 20260502202531 | 64 | 238 | 9.0 | 18.0 | 0.00 | 0.00 | 0.00 | 34 | 1012.7 |
| 20260502202032 | 64 | 190 | 11.0 | 18.0 | 0.00 | 0.00 | 0.00 | 32 | 1012.8 |
| 20260502201545 | 64 | 254 | 9.0 | 16.0 | 0.00 | 0.00 | 0.00 | 32 | 1013.0 |
| 20260502201032 | 64 | 313 | 7.0 | 15.0 | 0.00 | 0.00 | 0.00 | 31 | 1013.0 |
| 20260502200532 | 63 | 258 | 8.0 | 16.0 | 0.00 | 0.00 | 0.00 | 32 | 1013.2 |
| 20260502200041 | 63 | 257 | 9.0 | 17.0 | 0.00 | 0.00 | 0.00 | 33 | 1013.2 |
| 20260502195534 | 62 | 271 | 10.0 | 17.0 | 0.00 | 0.00 | 0.00 | 33 | 1013.3 |
| 20260502195029 | 62 | 238 | 8.0 | 15.0 | 0.00 | 0.00 | 0.00 | 32 | 1013.4 |
| 20260502194548 | 62 | 200 | 8.0 | 17.0 | 0.00 | 0.00 | 0.00 | 33 | 1013.4 |
| 20260502194031 | 62 | 257 | 6.0 | 17.0 | 0.00 | 0.00 | 0.00 | 33 | 1013.5 |
| 20260502193531 | 62 | 234 | 6.0 | 15.0 | 0.00 | 0.00 | 0.00 | 35 | 1013.6 |
| 20260502193039 | 61 | 218 | 7.0 | 13.0 | 0.00 | 0.00 | 0.00 | 33 | 1013.8 |
| 20260502192532 | 62 | 197 | 5.0 | 15.0 | 0.00 | 0.00 | 0.00 | 32 | 1013.8 |
| 20260502192033 | 62 | 174 | 8.0 | 15.0 | 0.00 | 0.00 | 0.00 | 33 | 1014.0 |
| 20260502191542 | 61 | 234 | 5.0 | 18.0 | 0.00 | 0.00 | 0.00 | 32 | 1014.0 |
| 20260502191035 | 61 | 267 | 9.0 | 18.0 | 0.00 | 0.00 | 0.00 | 33 | 1014.2 |
| 20260502190533 | 61 | 235 | 12.0 | 21.0 | 0.00 | 0.00 | 0.00 | 34 | 1014.2 |
| 20260502190037 | 61 | 234 | 7.0 | 21.0 | 0.00 | 0.00 | 0.00 | 33 | 1014.3 |
| 20260502185531 | 60 | 180 | 8.0 | 21.0 | 0.00 | 0.00 | 0.00 | 33 | 1014.2 |
| 20260502185033 | 60 | 209 | 10.0 | 18.0 | 0.00 | 0.00 | 0.00 | 32 | 1014.4 |
| 20260502184543 | 60 | 299 | 7.0 | 19.0 | 0.00 | 0.00 | 0.00 | 36 | 1014.6 |
| 20260502184031 | 60 | 237 | 10.0 | 19.0 | 0.00 | 0.00 | 0.00 | 35 | 1014.9 |
| 20260502183534 | 60 | 261 | 7.0 | 15.0 | 0.00 | 0.00 | 0.00 | 35 | 1015.0 |
| 20260502183048 | 60 | 232 | 9.0 | 15.0 | 0.00 | 0.00 | 0.00 | 35 | 1015.0 |
| 20260502182535 | 60 | 306 | 10.0 | 15.0 | 0.00 | 0.00 | 0.00 | 34 | 1015.1 |
| 20260502182032 | 59 | 267 | 3.0 | 12.0 | 0.00 | 0.00 | 0.00 | 33 | 1015.1 |
| 20260502181538 | 59 | 316 | 6.0 | 15.0 | 0.00 | 0.00 | 0.00 | 38 | 1015.2 |
| 20260502181033 | 60 | 322 | 9.0 | 15.0 | 0.00 | 0.00 | 0.00 | 35 | 1015.3 |
| 20260502180533 | 59 | 222 | 4.0 | 11.0 | 0.00 | 0.00 | 0.00 | 37 | 1015.3 |
| 20260502164033 | 56 | 264 | 7.0 | 14.0 | 0.00 | 0.00 | 0.00 | 37 | 1016.6 |
| 20260502163533 | 56 | 271 | 6.0 | 21.0 | 0.00 | 0.00 | 0.00 | 38 | 1016.8 |
| 20260502163103 | 56 | 272 | 12.0 | 21.0 | 0.00 | 0.00 | 0.00 | 37 | 1016.8 |
| 20260502162533 | 56 | 233 | 10.0 | 18.0 | 0.00 | 0.00 | 0.00 | 37 | 1016.8 |
| 20260502162031 | 55 | 286 | 10.0 | 18.0 | 0.00 | 0.00 | 0.00 | 37 | 1016.9 |
| 20260502161551 | 55 | 230 | 9.0 | 18.0 | 0.00 | 0.00 | 0.00 | 37 | 1017.0 |
| 20260502161032 | 56 | 247 | 8.0 | 17.0 | 0.00 | 0.00 | 0.00 | 38 | 1017.1 |
| 20260502160538 | 56 | 281 | 10.0 | 17.0 | 0.00 | 0.00 | 0.00 | 38 | 1017.1 |
| 20260502152035 | 53 | 204 | 8.0 | 14.0 | 0.00 | 0.00 | 0.00 | 40 | 1017.4 |
| 20260502151539 | 53 | 250 | 7.0 | 15.0 | 0.00 | 0.00 | 0.00 | 43 | 1017.5 |
| 20260502151033 | 52 | 301 | 6.0 | 15.0 | 0.00 | 0.00 | 0.00 | 45 | 1017.5 |
| 20260502150530 | 52 | 277 | 10.0 | 15.0 | 0.00 | 0.00 | 0.00 | 43 | 1017.5 |
| 20260502130529 | 45 | 267 | 5.0 | 10.0 | 0.00 | 0.00 | 0.00 | 53 | 1017.8 |
| 20260502123530 | 44 | 9 | 5.0 | 10.0 | 0.00 | 0.00 | 0.00 | 55 | 1017.7 |
| 20260502123045 | 43 | 299 | 4.0 | 10.0 | 0.00 | 0.00 | 0.00 | 55 | 1017.7 |
| 20260502122532 | 42 | 300 | 5.0 | 10.0 | 0.00 | 0.00 | 0.00 | 56 | 1017.6 |
| 20260502122032 | 42 | 288 | 3.0 | 9.0 | 0.00 | 0.00 | 0.00 | 58 | 1017.5 |
| 20260502121539 | 41 | 290 | 5.0 | 8.0 | 0.00 | 0.00 | 0.00 | 59 | 1017.5 |
| 20260502121031 | 41 | 258 | 4.0 | 9.0 | 0.00 | 0.00 | 0.00 | 59 | 1017.6 |
| 20260502120530 | 40 | 261 | 4.0 | 11.0 | 0.00 | 0.00 | 0.00 | 60 | 1017.6 |
| 20260502115533 | 39 | 252 | 4.0 | 8.0 | 0.00 | 0.00 | 0.00 | 61 | 1017.5 |
| 20260502115030 | 39 | 288 | 4.0 | 9.0 | 0.00 | 0.00 | 0.00 | 61 | 1017.5 |
| 20260502114546 | 39 | 300 | 4.0 | 9.0 | 0.00 | 0.00 | 0.00 | 61 | 1017.5 |
| 20260502114033 | 39 | 276 | 3.0 | 8.0 | 0.00 | 0.00 | 0.00 | 62 | 1017.4 |
| 20260502113531 | 38 | 279 | 3.0 | 8.0 | 0.00 | 0.00 | 0.00 | 62 | 1017.3 |
| 20260502113039 | 38 | 273 | 4.0 | 8.0 | 0.00 | 0.00 | 0.00 | 63 | 1017.3 |
| 20260502112532 | 38 | 291 | 3.0 | 8.0 | 0.00 | 0.00 | 0.00 | 62 | 1017.3 |
| 20260502112034 | 38 | 252 | 3.0 | 7.0 | 0.00 | 0.00 | 0.00 | 62 | 1017.3 |
| 20260502111547 | 38 | 265 | 2.0 | 7.0 | 0.00 | 0.00 | 0.00 | 62 | 1017.2 |
| 20260502111030 | 38 | 290 | 3.0 | 7.0 | 0.00 | 0.00 | 0.00 | 63 | 1017.3 |
| 20260502110532 | 38 | 271 | 2.0 | 6.0 | 0.00 | 0.00 | 0.00 | 62 | 1017.3 |
| 20260502110042 | 38 | 301 | 3.0 | 8.0 | 0.00 | 0.00 | 0.00 | 62 | 1017.4 |
| 20260502105532 | 38 | 267 | 2.0 | 8.0 | 0.00 | 0.00 | 0.00 | 61 | 1017.3 |
| 20260502105030 | 38 | 302 | 3.0 | 7.0 | 0.00 | 0.00 | 0.00 | 61 | 1017.4 |
| 20260502104549 | 38 | 276 | 3.0 | 7.0 | 0.00 | 0.00 | 0.00 | 60 | 1017.4 |
| 20260502104031 | 38 | 262 | 2.0 | 7.0 | 0.00 | 0.00 | 0.00 | 60 | 1017.4 |
| 20260502103531 | 39 | 259 | 3.0 | 8.0 | 0.00 | 0.00 | 0.00 | 60 | 1017.4 |
| 20260502103039 | 39 | 271 | 3.0 | 8.0 | 0.00 | 0.00 | 0.00 | 59 | 1017.3 |
| 20260502102532 | 39 | 259 | 4.0 | 8.0 | 0.00 | 0.00 | 0.00 | 59 | 1017.3 |
| 20260502102031 | 39 | 276 | 3.0 | 8.0 | 0.00 | 0.00 | 0.00 | 58 | 1017.4 |
| 20260502101537 | 39 | 295 | 3.0 | 7.0 | 0.00 | 0.00 | 0.00 | 57 | 1017.4 |
| 20260502101033 | 40 | 277 | 3.0 | 7.0 | 0.00 | 0.00 | 0.00 | 57 | 1017.4 |
| 20260502100530 | 40 | 279 | 3.0 | 8.0 | 0.00 | 0.00 | 0.00 | 55 | 1017.4 |
| 20260502091031 | 41 | 248 | 5.0 | 10.0 | 0.00 | 0.00 | 0.00 | 55 | 1017.3 |
| 20260502090530 | 41 | 257 | 5.0 | 10.0 | 0.00 | 0.00 | 0.00 | 55 | 1017.3 |
| 20260502071031 | 40 | 267 | 2.0 | 7.0 | 0.00 | 0.00 | 0.00 | 54 | 1017.5 |
| 20260502070530 | 40 | 259 | 2.0 | 7.0 | 0.00 | 0.00 | 0.00 | 54 | 1017.5 |
| 20260502070049 | 40 | 261 | 3.0 | 8.0 | 0.00 | 0.00 | 0.00 | 55 | 1017.5 |
| 20260502065533 | 40 | 248 | 3.0 | 8.0 | 0.00 | 0.00 | 0.00 | 55 | 1017.6 |
| 20260502065031 | 40 | 252 | 4.0 | 8.0 | 0.00 | 0.00 | 0.00 | 54 | 1017.7 |
| 20260502064545 | 40 | 271 | 3.0 | 7.0 | 0.00 | 0.00 | 0.00 | 54 | 1017.6 |
| 20260502064030 | 40 | 244 | 3.0 | 8.0 | 0.00 | 0.00 | 0.00 | 54 | 1017.7 |
| 20260502063532 | 40 | 258 | 3.0 | 8.0 | 0.00 | 0.00 | 0.00 | 54 | 1017.8 |
| 20260502063036 | 40 | 263 | 3.0 | 7.0 | 0.00 | 0.00 | 0.00 | 55 | 1017.8 |
| 20260502062533 | 40 | 269 | 3.0 | 7.0 | 0.00 | 0.00 | 0.00 | 55 | 1017.8 |
| 20260502062031 | 39 | 273 | 3.0 | 7.0 | 0.00 | 0.00 | 0.00 | 55 | 1017.8 |
| 20260502061543 | 39 | 247 | 3.0 | 6.0 | 0.00 | 0.00 | 0.00 | 55 | 1017.7 |
| 20260502061031 | 39 | 275 | 2.0 | 6.0 | 0.00 | 0.00 | 0.00 | 56 | 1017.8 |
| 20260502060532 | 39 | 269 | 2.0 | 4.0 | 0.00 | 0.00 | 0.00 | 56 | 1017.8 |
| 20260502060040 | 39 | 284 | 2.0 | 6.0 | 0.00 | 0.00 | 0.00 | 55 | 1017.8 |
| 20260502055533 | 39 | 265 | 2.0 | 6.0 | 0.00 | 0.00 | 0.00 | 55 | 1017.8 |
| 20260502055030 | 40 | 277 | 2.0 | 9.0 | 0.00 | 0.00 | 0.00 | 54 | 1017.8 |
| 20260502054555 | 40 | 273 | 2.0 | 9.0 | 0.00 | 0.00 | 0.00 | 54 | 1017.8 |
| 20260502054032 | 40 | 267 | 3.0 | 6.0 | 0.00 | 0.00 | 0.00 | 54 | 1017.9 |
| 20260502053532 | 40 | 272 | 2.0 | 6.0 | 0.00 | 0.00 | 0.00 | 54 | 1017.8 |
| 20260502053038 | 40 | 259 | 2.0 | 6.0 | 0.00 | 0.00 | 0.00 | 54 | 1017.8 |
| 20260502052532 | 40 | 274 | 3.0 | 6.0 | 0.00 | 0.00 | 0.00 | 54 | 1017.9 |
| 20260502052031 | 40 | 273 | 3.0 | 6.0 | 0.00 | 0.00 | 0.00 | 53 | 1017.8 |
| 20260502051546 | 40 | 265 | 3.0 | 6.0 | 0.00 | 0.00 | 0.00 | 54 | 1017.8 |
| 20260502051032 | 40 | 285 | 3.0 | 6.0 | 0.00 | 0.00 | 0.00 | 54 | 1017.8 |
| 20260502050531 | 40 | 267 | 2.0 | 6.0 | 0.00 | 0.00 | 0.00 | 54 | 1017.8 |
| 20260502050043 | 40 | 281 | 2.0 | 6.0 | 0.00 | 0.00 | 0.00 | 54 | 1017.9 |
| 20260502045534 | 40 | 278 | 3.0 | 6.0 | 0.00 | 0.00 | 0.00 | 54 | 1017.8 |
| 20260502045033 | 40 | 276 | 3.0 | 6.0 | 0.00 | 0.00 | 0.00 | 54 | 1017.8 |
| 20260502044544 | 40 | 275 | 3.0 | 6.0 | 0.00 | 0.00 | 0.00 | 54 | 1017.8 |
| 20260502044032 | 40 | 288 | 3.0 | 6.0 | 0.00 | 0.00 | 0.00 | 56 | 1017.7 |
| 20260502043532 | 40 | 277 | 2.0 | 6.0 | 0.00 | 0.00 | 0.00 | 56 | 1017.7 |
| 20260502043044 | 39 | 271 | 2.0 | 4.0 | 0.00 | 0.00 | 0.00 | 57 | 1017.8 |
| 20260502042532 | 39 | 270 | 2.0 | 4.0 | 0.00 | 0.00 | 0.00 | 58 | 1017.8 |
| 20260502042032 | 39 | 276 | 2.0 | 4.0 | 0.00 | 0.00 | 0.00 | 59 | 1017.8 |
| 20260502041546 | 39 | 273 | 2.0 | 4.0 | 0.00 | 0.00 | 0.00 | 59 | 1017.8 |
| 20260502041032 | 39 | 272 | 2.0 | 4.0 | 0.00 | 0.00 | 0.00 | 60 | 1017.7 |
| 20260502040529 | 39 | 271 | 2.0 | 4.0 | 0.00 | 0.00 | 0.00 | 61 | 1017.8 |
| 20260502040038 | 38 | 260 | 2.0 | 4.0 | 0.00 | 0.00 | 0.00 | 62 | 1017.8 |
| 20260502035532 | 38 | 273 | 2.0 | 4.0 | 0.00 | 0.00 | 0.00 | 63 | 1017.8 |
| 20260502035032 | 38 | 275 | 1.0 | 3.0 | 0.00 | 0.00 | 0.00 | 62 | 1017.8 |
| 20260502034543 | 39 | 275 | 0.0 | 2.0 | 0.00 | 0.00 | 0.00 | 61 | 1017.9 |
| 20260502034032 | 39 | 263 | 1.0 | 3.0 | 0.00 | 0.00 | 0.00 | 61 | 1017.9 |
| 20260502033531 | 39 | 263 | 1.0 | 3.0 | 0.00 | 0.00 | 0.00 | 59 | 1017.9 |
| 20260502033042 | 40 | 263 | 1.0 | 3.0 | 0.00 | 0.00 | 0.00 | 58 | 1017.9 |
| 20260502032531 | 40 | 266 | 1.0 | 2.0 | 0.00 | 0.00 | 0.00 | 58 | 1018.0 |
| 20260502032032 | 41 | 265 | 1.0 | 2.0 | 0.00 | 0.00 | 0.00 | 57 | 1018.0 |
| 20260502031537 | 41 | 265 | 1.0 | 2.0 | 0.00 | 0.00 | 0.00 | 57 | 1017.9 |
| 20260502031033 | 41 | 265 | 1.0 | 3.0 | 0.00 | 0.00 | 0.00 | 55 | 1018.0 |
| 20260502030530 | 42 | 265 | 1.0 | 3.0 | 0.00 | 0.00 | 0.00 | 54 | 1017.9 |
| 20260502030040 | 42 | 266 | 1.0 | 2.0 | 0.00 | 0.00 | 0.00 | 53 | 1017.9 |
| 20260502025532 | 42 | 266 | 1.0 | 2.0 | 0.00 | 0.00 | 0.00 | 52 | 1017.9 |
| 20260502025029 | 43 | 266 | 1.0 | 2.0 | 0.00 | 0.00 | 0.00 | 52 | 1018.0 |
| 20260502024540 | 43 | 266 | 1.0 | 3.0 | 0.00 | 0.00 | 0.00 | 51 | 1017.9 |
| 20260502024032 | 43 | 266 | 1.0 | 4.0 | 0.00 | 0.00 | 0.00 | 50 | 1018.0 |
| 20260502023532 | 43 | 266 | 2.0 | 4.0 | 0.00 | 0.00 | 0.00 | 51 | 1017.9 |
| 20260502023039 | 43 | 262 | 1.0 | 3.0 | 0.00 | 0.00 | 0.00 | 49 | 1017.9 |
| 20260502022532 | 43 | 266 | 1.0 | 3.0 | 0.00 | 0.00 | 0.00 | 49 | 1017.9 |
| 20260502022030 | 44 | 266 | 1.0 | 2.0 | 0.00 | 0.00 | 0.00 | 48 | 1017.8 |
| 20260502021545 | 44 | 253 | 0.0 | 3.0 | 0.00 | 0.00 | 0.00 | 47 | 1017.8 |
| 20260502021031 | 45 | 253 | 1.0 | 3.0 | 0.00 | 0.00 | 0.00 | 46 | 1017.8 |
| 20260502020532 | 45 | 292 | 1.0 | 3.0 | 0.00 | 0.00 | 0.00 | 45 | 1017.7 |
| 20260502020043 | 46 | 302 | 0.0 | 2.0 | 0.00 | 0.00 | 0.00 | 44 | 1017.7 |
| 20260502015533 | 46 | 256 | 1.0 | 3.0 | 0.00 | 0.00 | 0.00 | 43 | 1017.6 |
| 20260502015031 | 46 | 256 | 1.0 | 3.0 | 0.00 | 0.00 | 0.00 | 43 | 1017.5 |
| 20260502014551 | 47 | 266 | 1.0 | 3.0 | 0.00 | 0.00 | 0.00 | 42 | 1017.4 |
| 20260502014032 | 47 | 0 | 0.0 | 1.0 | 0.00 | 0.00 | 0.00 | 41 | 1017.4 |
| 20260502013532 | 47 | 331 | 0.0 | 1.0 | 0.00 | 0.00 | 0.00 | 41 | 1017.3 |
| 20260502013035 | 47 | 331 | 0.0 | 1.0 | 0.00 | 0.00 | 0.00 | 39 | 1017.2 |
| 20260502012532 | 47 | 0 | 0.0 | 0.0 | 0.00 | 0.00 | 0.00 | 39 | 1017.2 |
| 20260502012031 | 47 | 0 | 0.0 | 1.0 | 0.00 | 0.00 | 0.00 | 39 | 1017.2 |
| 20260502011547 | 49 | 0 | 0.0 | 4.0 | 0.00 | 0.00 | 0.00 | 37 | 1017.2 |
| 20260502011032 | 49 | 0 | 0.0 | 6.0 | 0.00 | 0.00 | 0.00 | 35 | 1017.2 |
| 20260502010532 | 49 | 9 | 2.0 | 6.0 | 0.00 | 0.00 | 0.00 | 35 | 1017.2 |
| 20260502010040 | 50 | 306 | 2.0 | 9.0 | 0.00 | 0.00 | 0.00 | 34 | 1017.1 |
| 20260502005531 | 50 | 347 | 4.0 | 10.0 | 0.00 | 0.00 | 0.00 | 34 | 1017.1 |
| 20260502005032 | 50 | 334 | 4.0 | 10.0 | 0.00 | 0.00 | 0.00 | 33 | 1017.1 |
| 20260502004548 | 50 | 315 | 4.0 | 10.0 | 0.00 | 0.00 | 0.00 | 34 | 1017.1 |
| 20260502004032 | 50 | 324 | 2.0 | 10.0 | 0.00 | 0.00 | 0.00 | 33 | 1017.2 |
| 20260502003531 | 51 | 339 | 6.0 | 11.0 | 0.00 | 0.00 | 0.00 | 33 | 1017.2 |
| 20260502003037 | 51 | 352 | 5.0 | 15.0 | 0.00 | 0.00 | 0.00 | 32 | 1017.1 |
| 20260502002534 | 51 | 319 | 7.0 | 15.0 | 0.00 | 0.00 | 0.00 | 33 | 1017.1 |
| 20260502002034 | 52 | 95 | 4.0 | 12.0 | 0.00 | 0.00 | 0.00 | 32 | 1017.1 |
| 20260502001543 | 51 | 343 | 1.0 | 9.0 | 0.00 | 0.00 | 0.00 | 31 | 1017.1 |
| 20260502001031 | 51 | 346 | 4.0 | 9.0 | 0.00 | 0.00 | 0.00 | 32 | 1017.0 |
| 20260502000531 | 51 | 5 | 3.0 | 9.0 | 0.00 | 0.00 | 0.00 | 32 | 1017.1 |
| 20260502000052 | 51 | 360 | 1.0 | 9.0 | 0.00 | 0.00 | 0.00 | 33 | 1017.0 |
| 20260501235531 | 51 | 269 | 2.0 | 9.0 | 0.00 | 0.00 | 0.00 | 32 | 1017.0 |
| 20260501235032 | 51 | 266 | 4.0 | 9.0 | 0.00 | 0.00 | 0.00 | 32 | 1017.0 |
| 20260501234541 | 51 | 352 | 4.0 | 9.0 | 0.00 | 0.00 | 0.00 | 34 | 1017.0 |
| 20260501234031 | 51 | 262 | 3.0 | 9.0 | 0.00 | 0.00 | 0.00 | 32 | 1016.9 |
| 20260501233534 | 51 | 282 | 4.0 | 9.0 | 0.00 | 0.00 | 0.00 | 33 | 1017.1 |
| 20260501233038 | 51 | 330 | 3.0 | 6.0 | 0.00 | 0.00 | 0.00 | 34 | 1017.0 |
| 20260501232531 | 51 | 350 | 1.0 | 7.0 | 0.00 | 0.00 | 0.00 | 35 | 1017.0 |
| 20260501232031 | 51 | 5 | 3.0 | 8.0 | 0.00 | 0.00 | 0.00 | 35 | 1017.0 |
| 20260501231534 | 51 | 322 | 3.0 | 8.0 | 0.00 | 0.00 | 0.00 | 34 | 1017.0 |
| 20260501231032 | 51 | 344 | 2.0 | 9.0 | 0.00 | 0.00 | 0.00 | 35 | 1017.1 |
| 20260501230532 | 51 | 343 | 4.0 | 11.0 | 0.00 | 0.00 | 0.00 | 33 | 1017.0 |
| 20260501230044 | 51 | 351 | 6.0 | 12.0 | 0.00 | 0.00 | 0.00 | 34 | 1017.1 |
| 20260501225532 | 51 | 346 | 3.0 | 12.0 | 0.00 | 0.00 | 0.00 | 34 | 1017.1 |
| 20260501225030 | 51 | 340 | 5.0 | 14.0 | 0.00 | 0.00 | 0.00 | 34 | 1017.1 |
| 20260501224542 | 52 | 350 | 6.0 | 15.0 | 0.00 | 0.00 | 0.00 | 34 | 1017.0 |
| 20260501224030 | 53 | 11 | 7.0 | 15.0 | 0.00 | 0.00 | 0.00 | 33 | 1017.1 |
| 20260501223530 | 53 | 18 | 6.0 | 15.0 | 0.00 | 0.00 | 0.00 | 32 | 1017.0 |
| 20260501223039 | 53 | 5 | 2.0 | 11.0 | 0.00 | 0.00 | 0.00 | 31 | 1017.0 |
| 20260501222530 | 53 | 352 | 3.0 | 11.0 | 0.00 | 0.00 | 0.00 | 31 | 1017.1 |
| 20260501222031 | 53 | 336 | 5.0 | 12.0 | 0.00 | 0.00 | 0.00 | 31 | 1017.1 |
| 20260501221539 | 53 | 352 | 5.0 | 12.0 | 0.00 | 0.00 | 0.00 | 34 | 1017.1 |
| 20260501221033 | 52 | 13 | 5.0 | 10.0 | 0.00 | 0.00 | 0.00 | 35 | 1017.1 |
| 20260501220529 | 51 | 341 | 4.0 | 10.0 | 0.00 | 0.00 | 0.00 | 35 | 1017.0 |